Weather History for KCMI - September, 2013

Change the Weather History Date:

Monday, September 9, 2013

  Actual Average Record
Temperature  
Mean Temperature 82 °F 68 °F  
Max Temperature 96 °F 81 °F 96 °F (2013)
Min Temperature 67 °F 56 °F 46 °F (1999)
Degree Days  
Heating Degree Days 0 1  
Month to date heating degree days 0 6  
Since 1 July heating degree days 15 15  
Cooling Degree Days 17 4  
Month to date cooling degree days 80 45  
Year to date cooling degree days 933 872  
Growing Degree Days 32 (Base 50)    
Moisture  
Dew Point 70 °F    
Average Humidity 71    
Maximum Humidity 100    
Minimum Humidity 41    
Precipitation  
Precipitation 0.00 in 0.11 in 0.85 in (2001)
Month to date precipitation 0.01 1.14  
Year to date precipitation 24.22 28.42  
Sea Level Pressure  
Sea Level Pressure 29.94 in    
Wind  
Wind Speed 7 mph (South)    
Max Wind Speed 15 mph    
Max Gust Speed 26 mph    
Visibility 6 miles    
Events      
T = Trace of Precipitation, MM = Missing Value Source: NWS Daily Summary

Daily Weather History Graph

Daily Weather History Graph

Search for Another Location

Airport or City:

Trip Planner

Search our weather history database for the weather conditions in past years. The results will help you decide how hot, cold, wet, or windy it might be!

Date:

Astronomy

Sep. 09, 2013 Rise Set
Actual Time 6:28 AM CDT 7:11 PM CDT
Civil Twilight 6:01 AM CDT 7:38 PM CDT
Nautical Twilight 5:28 AM CDT 8:10 PM CDT
Astronomical Twilight 4:55 AM CDT 8:44 PM CDT
Moon 10:50 AM CDT (9/9) 9:27 PM CDT (9/9)
Length of Visible Light 13h 37m
Length of Day
12h 42m
Waxing Crescent, 19% of the Moon is Illuminated
Sep 9
Waxing Crescent
Sep 12
First Quarter
Sep 19
Full
Sep 26
Last Quarter
Oct 4
New

Hourly Weather History & Observations

Time (CDT) Temp. Heat Index Dew Point Humidity Pressure Visibility Wind Dir Wind Speed Gust Speed Precip Events Conditions
12:53 AM 70.0 °F - 68.0 °F 93% 29.95 in 6.0 mi SSE 3.5 mph - N/A   Clear
1:53 AM 70.0 °F - 68.0 °F 93% 29.95 in 5.0 mi SSE 3.5 mph - N/A   Clear
2:53 AM 68.0 °F - 66.9 °F 96% 29.95 in 4.0 mi ESE 3.5 mph - N/A   Clear
3:53 AM 68.0 °F - 66.9 °F 96% 29.95 in 3.0 mi SSE 3.5 mph - N/A   Clear
4:53 AM 69.1 °F - 68.0 °F 96% 29.94 in 2.5 mi SSE 3.5 mph - N/A   Clear
5:32 AM 69.8 °F - 69.8 °F 100% 29.96 in 1.8 mi SSE 4.6 mph - N/A   Partly Cloudy
5:53 AM 70.0 °F - 69.1 °F 97% 29.94 in 1.8 mi SSE 4.6 mph - N/A   Partly Cloudy
6:20 AM 69.8 °F - 68.0 °F 94% 29.96 in 0.8 mi SE 3.5 mph - N/A   Clear
6:32 AM 69.8 °F - 68.0 °F 94% 29.96 in 0.5 mi SE 4.6 mph - N/A   Mist
6:53 AM 69.1 °F - 69.1 °F 100% 29.95 in 0.5 mi SE 5.8 mph - N/A   Mist
7:03 AM 69.8 °F - 69.8 °F 100% 29.96 in 0.5 mi SE 5.8 mph - N/A   Mist
7:18 AM 69.8 °F - 69.8 °F 100% 29.96 in 1.0 mi SE 4.6 mph - N/A   Partly Cloudy
7:53 AM 72.0 °F - 71.1 °F 97% 29.95 in 1.8 mi South 6.9 mph - N/A   Clear
8:01 AM 73.4 °F - 71.6 °F 94% 29.96 in 2.0 mi South 9.2 mph - N/A   Scattered Clouds
8:25 AM 75.2 °F - 71.6 °F 89% 29.96 in 3.0 mi South 8.1 mph - N/A   Partly Cloudy
8:53 AM 75.9 °F - 72.0 °F 87% 29.95 in 4.0 mi SSE 8.1 mph - N/A   Partly Cloudy
9:53 AM 82.0 °F 87.4 °F 73.0 °F 74% 29.95 in 7.0 mi SW 8.1 mph - N/A   Clear
10:53 AM 86.0 °F 93.8 °F 73.9 °F 67% 29.95 in 9.0 mi WSW 9.2 mph - N/A   Clear
11:53 AM 89.1 °F 97.0 °F 73.0 °F 59% 29.93 in 9.0 mi SSW 10.4 mph - N/A   Clear
12:53 PM 91.9 °F 100.7 °F 73.0 °F 54% 29.92 in 10.0 mi SW 10.4 mph - N/A   Clear
1:53 PM 93.0 °F 100.1 °F 71.1 °F 49% 29.91 in 10.0 mi SW 9.2 mph - N/A   Clear
2:53 PM 95.0 °F 102.5 °F 71.1 °F 46% 29.90 in 10.0 mi SSW 9.2 mph 16.1 mph N/A   Clear
3:53 PM 95.0 °F 100.7 °F 69.1 °F 43% 29.89 in 10.0 mi SW 12.7 mph 19.6 mph N/A   Clear
4:53 PM 93.9 °F 97.5 °F 66.9 °F 41% 29.89 in 10.0 mi SW 12.7 mph 19.6 mph N/A   Clear
5:53 PM 91.9 °F 98.4 °F 71.1 °F 50% 29.90 in 10.0 mi SW 8.1 mph - N/A   Clear
6:53 PM 86.0 °F 93.0 °F 73.0 °F 65% 29.91 in 10.0 mi SW 4.6 mph - N/A   Clear
7:13 PM 82.4 °F 88.2 °F 73.4 °F 74% 29.93 in 10.0 mi SSW 3.5 mph - N/A   Clear
7:53 PM 80.1 °F 83.8 °F 72.0 °F 76% 29.93 in 10.0 mi SSW 5.8 mph - N/A   Clear
8:53 PM 78.1 °F - 72.0 °F 81% 29.94 in 10.0 mi SSW 5.8 mph - N/A   Clear
9:53 PM 77.0 °F - 73.0 °F 88% 29.95 in 8.0 mi South 5.8 mph - N/A   Clear
10:53 PM 75.9 °F - 71.1 °F 85% 29.96 in 8.0 mi South 5.8 mph - N/A   Clear
11:53 PM 77.0 °F - 71.1 °F 82% 29.96 in 9.0 mi SSW 5.8 mph - N/A   Clear